TIME,�g�[�{�C���[-���� [L],�t���O,�����{�C���[-���� [L],�t���O,�g�[�{�C���[-���� [MJ/h],�t���O,�����{�C���[-���� [MJ/h],�t���O
2003/3/1 0:00,0.079695,0,0,0,11.699226,0,0,0
2003/3/1 0:15,0.016422,0,0,0,2.4107496,0,0,0
2003/3/1 0:30,0.012397,0,0,0,1.8198796,0,0,0
2003/3/1 0:45,0.015778,0,0,0,2.3162104,0,0,0
2003/3/1 1:00,0.010465,0,0,0,1.536262,0,0,0
2003/3/1 1:15,0.015939,0,0,0,2.3398452,0,0,0
2003/3/1 1:30,0.015778,0,0,0,2.3162104,0,0,0
2003/3/1 1:45,0.010948,0,0,0,1.6071664,0,0,0
2003/3/1 2:00,0.016261,0,0,0,2.3871148,0,0,0
2003/3/1 2:15,0.010465,0,0,0,1.536262,0,0,0
2003/3/1 2:30,0.0161,0,0,0,2.36348,0,0,0
2003/3/1 2:45,0.014329,0,0,0,2.1034972,0,0,0
2003/3/1 3:00,0.013041,0,0,0,1.9144188,0,0,0
2003/3/1 3:15,0.015617,0,0,0,2.2925756,0,0,0
2003/3/1 3:30,0.010465,0,0,0,1.536262,0,0,0
2003/3/1 3:45,0.015939,0,0,0,2.3398452,0,0,0
2003/3/1 4:00,0.015617,0,0,0,2.2925756,0,0,0
2003/3/1 4:15,0.009821,0,0,0,1.4417228,0,0,0
2003/3/1 4:30,0.008372,0,0,0,1.2290096,0,0,0
2003/3/1 4:45,0.009338,0,0,0,1.3708184,0,0,0
2003/3/1 5:00,0.007728,0,0,0,1.1344704,0,0,0
2003/3/1 5:15,0.008372,0,0,0,1.2290096,0,0,0
2003/3/1 5:30,0.009821,0,0,0,1.4417228,0,0,0
2003/3/1 5:45,0.00966,0,0,0,1.418088,0,0,0
2003/3/1 6:00,0.012719,0,0,0,1.8671492,0,0,0
2003/3/1 6:15,0.077119,0,0.211715,0,11.3210692,0,31.079762,0
2003/3/1 6:30,0.084364,0,0.07728,0,12.3846352,0,11.344704,0
2003/3/1 6:45,0.07889,0,0.021735,0,11.581052,0,3.190698,0
2003/3/1 7:00,0.076475,0,0,0,11.22653,0,0,0
2003/3/1 7:15,0.075348,0,0,0,11.0610864,0,0,0
2003/3/1 7:30,0.080339,0,0,0,11.7937652,0,0,0
2003/3/1 7:45,0.075348,0,0,0,11.0610864,0,0,0
2003/3/1 8:00,0.077924,0,0,0,11.4392432,0,0,0
2003/3/1 8:15,0.076797,0,0,0,11.2737996,0,0,0
2003/3/1 8:30,0.078246,0,0.077924,0,11.4865128,0,11.4392432,0
2003/3/1 8:45,0.073577,0,0.147315,0,10.8011036,0,21.625842,0
2003/3/1 9:00,0.068747,0,0.023184,0,10.0920596,0,3.4034112,0
2003/3/1 9:15,0.010304,0,0,0,1.5126272,0,0,0
2003/3/1 9:30,0.009338,0,0,0,1.3708184,0,0,0
2003/3/1 9:45,0.009338,0,0,0,1.3708184,0,0,0
2003/3/1 10:00,0.015456,0,0,0,2.2689408,0,0,0
2003/3/1 10:15,0.010304,0,0,0,1.5126272,0,0,0
2003/3/1 10:30,0.015939,0,0,0,2.3398452,0,0,0
2003/3/1 10:45,0.010626,0,0,0,1.5598968,0,0,0
2003/3/1 11:00,0.015456,0,0,0,2.2689408,0,0,0
2003/3/1 11:15,0.009821,0,0,0,1.4417228,0,0,0
2003/3/1 11:30,0.015617,0,0,0,2.2925756,0,0,0
2003/3/1 11:45,0.01127,0,0,0,1.654436,0,0,0
2003/3/1 12:00,0.01449,0,0,0,2.127132,0,0,0
2003/3/1 12:15,0.011914,0,0,0,1.7489752,0,0,0
2003/3/1 12:30,0.013846,0,0,0,2.0325928,0,0,0
2003/3/1 12:45,0.012236,0,0,0,1.7962448,0,0,0
2003/3/1 13:00,0.013363,0,0,0,1.9616884,0,0,0
2003/3/1 13:15,0.009338,0,0,0,1.3708184,0,0,0
2003/3/1 13:30,0.00483,0,0,0,0.709044,0,0,0
2003/3/1 13:45,0.009499,0,0,0,1.3944532,0,0,0
2003/3/1 14:00,0.00966,0,0,0,1.418088,0,0,0
2003/3/1 14:15,0.009499,0,0,0,1.3944532,0,0,0
2003/3/1 14:30,0.00966,0,0,0,1.418088,0,0,0
2003/3/1 14:45,0.00966,0,0,0,1.418088,0,0,0
2003/3/1 15:00,0.008211,0,0,0,1.2053748,0,0,0
2003/3/1 15:15,0.00644,0,0,0,0.945392,0,0,0
2003/3/1 15:30,0.00966,0,0,0,1.418088,0,0,0
2003/3/1 15:45,0.00966,0,0,0,1.418088,0,0,0
2003/3/1 16:00,0.009338,0,0,0,1.3708184,0,0,0
2003/3/1 16:15,0.009499,0,0,0,1.3944532,0,0,0
2003/3/1 16:30,0.00966,0,0,0,1.418088,0,0,0
2003/3/1 16:45,0.07245,0,0,0,10.63566,0,0,0
2003/3/1 17:00,0.078568,0,0,0,11.5337824,0,0,0
2003/3/1 17:15,0.022862,0,0,0,3.3561416,0,0,0
2003/3/1 17:30,0.010465,0,0,0,1.536262,0,0,0
2003/3/1 17:45,0.015456,0,0,0,2.2689408,0,0,0
2003/3/1 18:00,0.010465,0,0,0,1.536262,0,0,0
2003/3/1 18:15,0.015617,0,0,0,2.2925756,0,0,0
2003/3/1 18:30,0.014651,0,0,0,2.1507668,0,0,0
2003/3/1 18:45,0.010948,0,0,0,1.6071664,0,0,0
2003/3/1 19:00,0.015617,0,0,0,2.2925756,0,0,0
2003/3/1 19:15,0.010465,0,0,0,1.536262,0,0,0
2003/3/1 19:30,0.015617,0,0,0,2.2925756,0,0,0
2003/3/1 19:45,0.015617,0,0,0,2.2925756,0,0,0
2003/3/1 20:00,0.010465,0,0,0,1.536262,0,0,0
2003/3/1 20:15,0.015617,0,0,0,2.2925756,0,0,0
2003/3/1 20:30,0.02737,0,0,0,4.017916,0,0,0
2003/3/1 20:45,0.078568,0,0,0,11.5337824,0,0,0
2003/3/1 21:00,0.07406,0,0,0,10.872008,0,0,0
2003/3/1 21:15,0.078085,0,0,0,11.462878,0,0,0
2003/3/1 21:30,0.073899,0,0,0,10.8483732,0,0,0
2003/3/1 21:45,0.074382,0,0,0,10.9192776,0,0,0
2003/3/1 22:00,0.074221,0,0.360479,0,10.8956428,0,52.9183172,0
2003/3/1 22:15,0.077441,0,0.248745,0,11.3683388,0,36.515766,0
2003/3/1 22:30,0.071967,0,0.035903,0,10.5647556,0,5.2705604,0
2003/3/1 22:45,0.074865,0,0,0,10.990182,0,0,0
2003/3/1 23:00,0.076314,0,0,0,11.2028952,0,0,0
2003/3/1 23:15,0.075348,0,0.023989,0,11.0610864,0,3.5215852,0
2003/3/1 23:30,0.07567,0,0.222824,0,11.108356,0,32.7105632,0
2003/3/1 23:45,0.066332,0,0.202216,0,9.7375376,0,29.6853088,0
2003/3/2 0:00,0.071001,0,0.09338,0,10.4229468,0,13.708184,0
2003/3/2 0:15,0.071323,0,0,0,10.4702164,0,0,0
2003/3/2 0:30,0.075026,0,0,0,11.0138168,0,0,0
2003/3/2 0:45,0.070518,0,0,0,10.3520424,0,0,0
2003/3/2 1:00,0.075992,0,0,0,11.1556256,0,0,0
2003/3/2 1:15,0.068908,0,0,0,10.1156944,0,0,0
2003/3/2 1:30,0.071484,0,0,0,10.4938512,0,0,0
2003/3/2 1:45,0.075509,0,0,0,11.0847212,0,0,0
2003/3/2 2:00,0.070679,0,0,0,10.3756772,0,0,0
2003/3/2 2:15,0.069874,0,0,0,10.2575032,0,0,0
2003/3/2 2:30,0.044758,0,0,0,6.5704744,0,0,0
2003/3/2 2:45,0.037835,0,0,0,5.554178,0,0,0
2003/3/2 3:00,0.015778,0,0,0,2.3162104,0,0,0
2003/3/2 3:15,0.015295,0,0,0,2.245306,0,0,0
2003/3/2 3:30,0.010465,0,0,0,1.536262,0,0,0
2003/3/2 3:45,0.015456,0,0,0,2.2689408,0,0,0
2003/3/2 4:00,0.010304,0,0,0,1.5126272,0,0,0
2003/3/2 4:15,0.015456,0,0,0,2.2689408,0,0,0
2003/3/2 4:30,0.011753,0,0,0,1.7253404,0,0,0
2003/3/2 4:45,0.014329,0,0,0,2.1034972,0,0,0
2003/3/2 5:00,0.015778,0,0,0,2.3162104,0,0,0
2003/3/2 5:15,0.010626,0,0,0,1.5598968,0,0,0
2003/3/2 5:30,0.015456,0,0,0,2.2689408,0,0,0
2003/3/2 5:45,0.010465,0,0,0,1.536262,0,0,0
2003/3/2 6:00,0.015456,0,0,0,2.2689408,0,0,0
2003/3/2 6:15,0.010626,0,0,0,1.5598968,0,0,0
2003/3/2 6:30,0.0161,0,0,0,2.36348,0,0,0
2003/3/2 6:45,0.011431,0,0,0,1.6780708,0,0,0
2003/3/2 7:00,0.011914,0,0,0,1.7489752,0,0,0
2003/3/2 7:15,0.010948,0,0,0,1.6071664,0,0,0
2003/3/2 7:30,0.010304,0,0,0,1.5126272,0,0,0
2003/3/2 7:45,0.039445,0,0,0,5.790526,0,0,0
2003/3/2 8:00,0.07084,0,0,0,10.399312,0,0,0
2003/3/2 8:15,0.078246,0,0.109641,0,11.4865128,0,16.0952988,0
2003/3/2 8:30,0.070518,0,0,0,10.3520424,0,0,0
2003/3/2 8:45,0.077763,0,0.037352,0,11.4156084,0,5.4832736,0
2003/3/2 9:00,0.071162,0,0.01932,0,10.4465816,0,2.836176,0
2003/3/2 9:15,0.07728,0,0,0,11.344704,0,0,0
2003/3/2 9:30,0.071323,0,0.027853,0,10.4702164,0,4.0888204,0
2003/3/2 9:45,0.069552,0,0,0,10.2102336,0,0,0
2003/3/2 10:00,0.077763,0,0.023667,0,11.4156084,0,3.4743156,0
2003/3/2 10:15,0.072772,0,0.180803,0,10.6829296,0,26.5418804,0
2003/3/2 10:30,0.069069,0,0,0,10.1393292,0,0,0
2003/3/2 10:45,0.07084,0,0,0,10.399312,0,0,0
2003/3/2 11:00,0.076475,0,0,0,11.22653,0,0,0
2003/3/2 11:15,0.06923,0,0,0,10.162964,0,0,0
2003/3/2 11:30,0.047495,0,0,0,6.972266,0,0,0
2003/3/2 11:45,0.042343,0,0,0,6.2159524,0,0,0
2003/3/2 12:00,0,0,0,0,0,0,0,0
2003/3/2 12:15,0,0,0,0,0,0,0,0
2003/3/2 12:30,0,0,0,0,0,0,0,0
2003/3/2 12:45,0,0,0,0,0,0,0,0
2003/3/2 13:00,0,0,0,0,0,0,0,0
2003/3/2 13:15,0,0,0,0,0,0,0,0
2003/3/2 13:30,0,0,0,0,0,0,0,0
2003/3/2 13:45,0,0,0,0,0,0,0,0
2003/3/2 14:00,0,0,0,0,0,0,0,0
2003/3/2 14:15,0,0,0,0,0,0,0,0
2003/3/2 14:30,0,0,0,0,0,0,0,0
2003/3/2 14:45,0,0,0,0,0,0,0,0
2003/3/2 15:00,0,0,0,0,0,0,0,0
2003/3/2 15:15,0,0,0,0,0,0,0,0
2003/3/2 15:30,0,0,0,0,0,0,0,0
2003/3/2 15:45,0,0,0,0,0,0,0,0
2003/3/2 16:00,0,0,0,0,0,0,0,0
2003/3/2 16:15,0,0,0,0,0,0,0,0
2003/3/2 16:30,0,0,0,0,0,0,0,0
2003/3/2 16:45,0,0,0,0,0,0,0,0
2003/3/2 17:00,0,0,0,0,0,0,0,0
2003/3/2 17:15,0,0,0,0,0,0,0,0
2003/3/2 17:30,0,0,0,0,0,0,0,0
2003/3/2 17:45,0,0,0,0,0,0,0,0
2003/3/2 18:00,0.038962,0,0,0,5.7196216,0,0,0
2003/3/2 18:15,0.080822,0,0,0,11.8646696,0,0,0
2003/3/2 18:30,0.073255,0,0,0,10.753834,0,0,0
2003/3/2 18:45,0.071806,0,0,0,10.5411208,0,0,0
2003/3/2 19:00,0.077441,0,0,0,11.3683388,0,0,0
2003/3/2 19:15,0.070679,0,0,0,10.3756772,0,0,0
2003/3/2 19:30,0.07245,0,0,0,10.63566,0,0,0
2003/3/2 19:45,0.067459,0,0,0,9.9029812,0,0,0
2003/3/2 20:00,0.074865,0,0,0,10.990182,0,0,0
2003/3/2 20:15,0.062951,0,0,0,9.2412068,0,0,0
2003/3/2 20:30,0.069069,0,0,0,10.1393292,0,0,0
2003/3/2 20:45,0.070679,0,0,0,10.3756772,0,0,0
2003/3/2 21:00,0.071645,0,0,0,10.517486,0,0,0
2003/3/2 21:15,0.07245,0,0,0,10.63566,0,0,0
2003/3/2 21:30,0.059731,0,0,0,8.7685108,0,0,0
2003/3/2 21:45,0.021896,0,0,0,3.2143328,0,0,0
2003/3/2 22:00,0.021574,0,0,0,3.1670632,0,0,0
2003/3/2 22:15,0.014329,0,0,0,2.1034972,0,0,0
2003/3/2 22:30,0.00966,0,0,0,1.418088,0,0,0
2003/3/2 22:45,0.059248,0,0,0,8.6976064,0,0,0
2003/3/2 23:00,0.059731,0,0,0,8.7685108,0,0,0
2003/3/2 23:15,0.037513,0,0,0,5.5069084,0,0,0
2003/3/2 23:30,0.031073,0,0,0,4.5615164,0,0,0
2003/3/2 23:45,0.022057,0,0,0,3.2379676,0,0,0
2003/3/3 0:00,0.003864,0,0,0,0.5672352,0,0,0
2003/3/3 0:15,0,0,0,0,0,0,0,0
2003/3/3 0:30,0,0,0,0,0,0,0,0
2003/3/3 0:45,0,0,0,0,0,0,0,0
2003/3/3 1:00,0,0,0,0,0,0,0,0
2003/3/3 1:15,0,0,0,0,0,0,0,0
2003/3/3 1:30,0,0,0,0,0,0,0,0
2003/3/3 1:45,0,0,0,0,0,0,0,0
2003/3/3 2:00,0,0,0,0,0,0,0,0
2003/3/3 2:15,0,0,0,0,0,0,0,0
2003/3/3 2:30,0,0,0,0,0,0,0,0
2003/3/3 2:45,0,0,0,0,0,0,0,0
2003/3/3 3:00,0,0,0,0,0,0,0,0
2003/3/3 3:15,0,0,0,0,0,0,0,0
2003/3/3 3:30,0,0,0,0,0,0,0,0
2003/3/3 3:45,0,0,0,0,0,0,0,0
2003/3/3 4:00,0,0,0,0,0,0,0,0
2003/3/3 4:15,0,0,0,0,0,0,0,0
2003/3/3 4:30,0,0,0,0,0,0,0,0
2003/3/3 4:45,0,0,0,0,0,0,0,0
2003/3/3 5:00,0,0,0,0,0,0,0,0
2003/3/3 5:15,0,0,0,0,0,0,0,0
2003/3/3 5:30,0,0,0,0,0,0,0,0
2003/3/3 5:45,0,0,0,0,0,0,0,0
2003/3/3 6:00,0,0,0,0,0,0,0,0
2003/3/3 6:15,0.057477,0,0,0,8.4376236,0,0,0
2003/3/3 6:30,0.082271,0,0,0,12.0773828,0,0,0
2003/3/3 6:45,0.076958,0,0,0,11.2974344,0,0,0
2003/3/3 7:00,0.071806,0,0.108031,0,10.5411208,0,15.8589508,0
2003/3/3 7:15,0.075348,0,0,0,11.0610864,0,0,0
2003/3/3 7:30,0.076958,0,0,0,11.2974344,0,0,0
2003/3/3 7:45,0.071162,0,0,0,10.4465816,0,0,0
2003/3/3 8:00,0.078568,0,0,0,11.5337824,0,0,0
2003/3/3 8:15,0.071001,0,0,0,10.4229468,0,0,0
2003/3/3 8:30,0.076153,0,0,0,11.1792604,0,0,0
2003/3/3 8:45,0.007889,0,0,0,1.1581052,0,0,0
2003/3/3 9:00,0,0,0,0,0,0,0,0
2003/3/3 9:15,0,0,0,0,0,0,0,0
2003/3/3 9:30,0,0,0,0,0,0,0,0
2003/3/3 9:45,0,0,0,0,0,0,0,0
2003/3/3 10:00,0,0,0,0,0,0,0,0
2003/3/3 10:15,0,0,0,0,0,0,0,0
2003/3/3 10:30,0,0,0,0,0,0,0,0
2003/3/3 10:45,0,0,0,0,0,0,0,0
2003/3/3 11:00,0,0,0,0,0,0,0,0
2003/3/3 11:15,0,0,0,0,0,0,0,0
2003/3/3 11:30,0,0,0,0,0,0,0,0
2003/3/3 11:45,0,0,0,0,0,0,0,0
2003/3/3 12:00,0,0,0,0,0,0,0,0
2003/3/3 12:15,0,0,0,0,0,0,0,0
2003/3/3 12:30,0,0,0,0,0,0,0,0
2003/3/3 12:45,0,0,0,0,0,0,0,0
2003/3/3 13:00,0,0,0,0,0,0,0,0
2003/3/3 13:15,0,0,0,0,0,0,0,0
2003/3/3 13:30,0,0,0,0,0,0,0,0
2003/3/3 13:45,0,0,0,0,0,0,0,0
2003/3/3 14:00,0,0,0,0,0,0,0,0
2003/3/3 14:15,0,0,0,0,0,0,0,0
2003/3/3 14:30,0,0,0,0,0,0,0,0
2003/3/3 14:45,0,0,0,0,0,0,0,0
2003/3/3 15:00,0,0,0,0,0,0,0,0
2003/3/3 15:15,0,0,0,0,0,0,0,0
2003/3/3 15:30,0,0,0,0,0,0,0,0
2003/3/3 15:45,0.076475,0,0,0,11.22653,0,0,0
2003/3/3 16:00,0.077763,0,0,0,11.4156084,0,0,0
2003/3/3 16:15,0.069874,0,0,0,10.2575032,0,0,0
2003/3/3 16:30,0.077119,0,0,0,11.3210692,0,0,0
2003/3/3 16:45,0.069874,0,0,0,10.2575032,0,0,0
2003/3/3 17:00,0.071162,0,0,0,10.4465816,0,0,0
2003/3/3 17:15,0.073416,0,0,0,10.7774688,0,0,0
2003/3/3 17:30,0.074221,0,0,0,10.8956428,0,0,0
2003/3/3 17:45,0.07084,0,0,0,10.399312,0,0,0
2003/3/3 18:00,0.070518,0,0,0,10.3520424,0,0,0
2003/3/3 18:15,0.070357,0,0,0,10.3284076,0,0,0
2003/3/3 18:30,0.072611,0,0,0,10.6592948,0,0,0
2003/3/3 18:45,0.074221,0,0,0,10.8956428,0,0,0
2003/3/3 19:00,0.071323,0,0,0,10.4702164,0,0,0
2003/3/3 19:15,0.066815,0,0,0,9.808442,0,0,0
2003/3/3 19:30,0.063434,0,0,0,9.3121112,0,0,0
2003/3/3 19:45,0.026726,0,0,0,3.9233768,0,0,0
2003/3/3 20:00,0.021896,0,0,0,3.2143328,0,0,0
2003/3/3 20:15,0.062307,0,0,0,9.1466676,0,0,0
2003/3/3 20:30,0.049588,0,0,0,7.2795184,0,0,0
2003/3/3 20:45,0.027048,0,0,0,3.9706464,0,0,0
2003/3/3 21:00,0.070357,0,0,0,10.3284076,0,0,0
2003/3/3 21:15,0.069069,0,0,0,10.1393292,0,0,0
2003/3/3 21:30,0.07245,0,0.393323,0,10.63566,0,57.7398164,0
2003/3/3 21:45,0.062951,0,0.433573,0,9.2412068,0,63.6485164,0
2003/3/3 22:00,0.065205,0,0,0,9.572094,0,0,0
2003/3/3 22:15,0.069391,0,0,0,10.1865988,0,0,0
2003/3/3 22:30,0.074704,0,0.120911,0,10.9665472,0,17.7497348,0
2003/3/3 22:45,0.058604,0,0,0,8.6030672,0,0,0
2003/3/3 23:00,0.070196,0,0,0,10.3047728,0,0,0
2003/3/3 23:15,0.019803,0,0,0,2.9070804,0,0,0
2003/3/3 23:30,0.009499,0,0,0,1.3944532,0,0,0
2003/3/3 23:45,0.016422,0,0,0,2.4107496,0,0,0
2003/3/4 0:00,0.008855,0,0,0,1.299914,0,0,0
2003/3/4 0:15,0.011109,0,0.161,0,1.6308012,0,23.6348,0
2003/3/4 0:30,0,0,0.057799,0,0,0,8.4848932,0
2003/3/4 0:45,0,0,0,0,0,0,0,0
2003/3/4 1:00,0,0,0,0,0,0,0,0
2003/3/4 1:15,0,0,0,0,0,0,0,0
2003/3/4 1:30,0,0,0,0,0,0,0,0
2003/3/4 1:45,0,0,0,0,0,0,0,0
2003/3/4 2:00,0,0,0,0,0,0,0,0
2003/3/4 2:15,0,0,0,0,0,0,0,0
2003/3/4 2:30,0,0,0,0,0,0,0,0
2003/3/4 2:45,0,0,0,0,0,0,0,0
2003/3/4 3:00,0,0,0,0,0,0,0,0
2003/3/4 3:15,0,0,0,0,0,0,0,0
2003/3/4 3:30,0,0,0,0,0,0,0,0
2003/3/4 3:45,0,0,0,0,0,0,0,0
2003/3/4 4:00,0,0,0,0,0,0,0,0
2003/3/4 4:15,0,0,0,0,0,0,0,0
2003/3/4 4:30,0,0,0,0,0,0,0,0
2003/3/4 4:45,0,0,0,0,0,0,0,0
2003/3/4 5:00,0,0,0,0,0,0,0,0
2003/3/4 5:15,0,0,0,0,0,0,0,0
2003/3/4 5:30,0,0,0,0,0,0,0,0
2003/3/4 5:45,0,0,0,0,0,0,0,0
2003/3/4 6:00,0,0,0,0,0,0,0,0
2003/3/4 6:15,0,0,0,0,0,0,0,0
2003/3/4 6:30,0,0,0,0,0,0,0,0
2003/3/4 6:45,0,0,0,0,0,0,0,0
2003/3/4 7:00,0,0,0,0,0,0,0,0
2003/3/4 7:15,0.07728,0,0,0,11.344704,0,0,0
2003/3/4 7:30,0.07567,0,0,0,11.108356,0,0,0
2003/3/4 7:45,0.074865,0,0,0,10.990182,0,0,0
2003/3/4 8:00,0.069713,0,0,0,10.2338684,0,0,0
2003/3/4 8:15,0.071806,0,0.198674,0,10.5411208,0,29.1653432,0
2003/3/4 8:30,0.070357,0,0,0,10.3284076,0,0,0
2003/3/4 8:45,0.071967,0,0,0,10.5647556,0,0,0
2003/3/4 9:00,0.052808,0,0,0,7.7522144,0,0,0
2003/3/4 9:15,0,0,0,0,0,0,0,0
2003/3/4 9:30,0,0,0,0,0,0,0,0
2003/3/4 9:45,0,0,0,0,0,0,0,0
2003/3/4 10:00,0,0,0,0,0,0,0,0
2003/3/4 10:15,0,0,0,0,0,0,0,0
2003/3/4 10:30,0,0,0,0,0,0,0,0
2003/3/4 10:45,0,0,0,0,0,0,0,0
2003/3/4 11:00,0,0,0,0,0,0,0,0
2003/3/4 11:15,0,0,0,0,0,0,0,0
2003/3/4 11:30,0,0,0,0,0,0,0,0
2003/3/4 11:45,0,0,0,0,0,0,0,0
2003/3/4 12:00,0,0,0,0,0,0,0,0
2003/3/4 12:15,0,0,0,0,0,0,0,0
2003/3/4 12:30,0,0,0,0,0,0,0,0
2003/3/4 12:45,0,0,0,0,0,0,0,0
2003/3/4 13:00,0,0,0,0,0,0,0,0
2003/3/4 13:15,0,0,0,0,0,0,0,0
2003/3/4 13:30,0,0,0,0,0,0,0,0
2003/3/4 13:45,0,0,0,0,0,0,0,0
2003/3/4 14:00,0,0,0,0,0,0,0,0
2003/3/4 14:15,0,0,0,0,0,0,0,0
2003/3/4 14:30,0,0,0.000161,0,0,0,0.0236348,0
2003/3/4 14:45,0,0,0,0,0,0,0,0
2003/3/4 15:00,0,0,0,0,0,0,0,0
2003/3/4 15:15,0,0,0,0,0,0,0,0
2003/3/4 15:30,0,0,0,0,0,0,0,0
2003/3/4 15:45,0,0,0,0,0,0,0,0
2003/3/4 16:00,0,0,0,0,0,0,0,0
2003/3/4 16:15,0,0,0,0,0,0,0,0
2003/3/4 16:30,0,0,0,0,0,0,0,0
2003/3/4 16:45,0,0,0,0,0,0,0,0
2003/3/4 17:00,0,0,0,0,0,0,0,0
2003/3/4 17:15,0.056189,0,0,0,8.2485452,0,0,0
2003/3/4 17:30,0.022701,0,0,0,3.3325068,0,0,0
2003/3/4 17:45,0.023506,0,0,0,3.4506808,0,0,0
2003/3/4 18:00,0.01127,0,0,0,1.654436,0,0,0
2003/3/4 18:15,0.021896,0,0,0,3.2143328,0,0,0
2003/3/4 18:30,0.038157,0,0,0,5.6014476,0,0,0
2003/3/4 18:45,0.079212,0,0,0,11.6283216,0,0,0
2003/3/4 19:00,0.080661,0,0,0,11.8410348,0,0,0
2003/3/4 19:15,0.074543,0,0,0,10.9429124,0,0,0
2003/3/4 19:30,0.080178,0,0,0,11.7701304,0,0,0
2003/3/4 19:45,0.071967,0,0,0,10.5647556,0,0,0
2003/3/4 20:00,0.080983,0,0,0,11.8883044,0,0,0
2003/3/4 20:15,0.070035,0,0,0,10.281138,0,0,0
2003/3/4 20:30,0.078729,0,0,0,11.5574172,0,0,0
2003/3/4 20:45,0.072128,0,0,0,10.5883904,0,0,0
2003/3/4 21:00,0.076958,0,0,0,11.2974344,0,0,0
2003/3/4 21:15,0.07567,0,0,0,11.108356,0,0,0
2003/3/4 21:30,0.072128,0,0,0,10.5883904,0,0,0
2003/3/4 21:45,0.079534,0,0,0,11.6755912,0,0,0
2003/3/4 22:00,0.076153,0,0.150696,0,11.1792604,0,22.1221728,0
2003/3/4 22:15,0.078568,0,0.551747,0,11.5337824,0,80.9964596,0
2003/3/4 22:30,0.071645,0,0.112378,0,10.517486,0,16.4970904,0
2003/3/4 22:45,0.075831,0,0,0,11.1319908,0,0,0
2003/3/4 23:00,0.07728,0,0.151662,0,11.344704,0,22.2639816,0
2003/3/4 23:15,0.072772,0,0,0,10.6829296,0,0,0
2003/3/4 23:30,0.070518,0,0,0,10.3520424,0,0,0
2003/3/4 23:45,0.075992,0,0,0,11.1556256,0,0,0
2003/3/5 0:00,0.062951,0,0,0,9.2412068,0,0,0
2003/3/5 0:15,0.011753,0,0,0,1.7253404,0,0,0
2003/3/5 0:30,0.064078,0,0,0,9.4066504,0,0,0
2003/3/5 0:45,0.075831,0,0,0,11.1319908,0,0,0
2003/3/5 1:00,0.053452,0,0.105938,0,7.8467536,0,15.5516984,0
2003/3/5 1:15,0.011431,0,0.084364,0,1.6780708,0,12.3846352,0
2003/3/5 1:30,0.015617,0,0,0,2.2925756,0,0,0
2003/3/5 1:45,0.011431,0,0,0,1.6780708,0,0,0
2003/3/5 2:00,0.015617,0,0,0,2.2925756,0,0,0
2003/3/5 2:15,0.010465,0,0,0,1.536262,0,0,0
2003/3/5 2:30,0.015778,0,0,0,2.3162104,0,0,0
2003/3/5 2:45,0.016583,0,0,0,2.4343844,0,0,0
2003/3/5 3:00,0.010948,0,0,0,1.6071664,0,0,0
2003/3/5 3:15,0.016583,0,0,0,2.4343844,0,0,0
2003/3/5 3:30,0.011753,0,0,0,1.7253404,0,0,0
2003/3/5 3:45,0.014812,0,0,0,2.1744016,0,0,0
2003/3/5 4:00,0.015778,0,0,0,2.3162104,0,0,0
2003/3/5 4:15,0.010948,0,0,0,1.6071664,0,0,0
2003/3/5 4:30,0.0161,0,0,0,2.36348,0,0,0
2003/3/5 4:45,0.019642,0,0,0,2.8834456,0,0,0
2003/3/5 5:00,0.017388,0,0,0,2.5525584,0,0,0
2003/3/5 5:15,0.010787,0,0,0,1.5835316,0,0,0
2003/3/5 5:30,0.024311,0,0,0,3.5688548,0,0,0
2003/3/5 5:45,0.013041,0,0,0,1.9144188,0,0,0
2003/3/5 6:00,0.023345,0,0,0,3.427046,0,0,0
2003/3/5 6:15,0.016905,0,0,0,2.481654,0,0,0
2003/3/5 6:30,0.0644,0,0,0,9.45392,0,0,0
2003/3/5 6:45,0.079051,0,0,0,11.6046868,0,0,0
2003/3/5 7:00,0.075831,0,0,0,11.1319908,0,0,0
2003/3/5 7:15,0.075992,0,0,0,11.1556256,0,0,0
2003/3/5 7:30,0.078246,0,0,0,11.4865128,0,0,0
2003/3/5 7:45,0.079534,0,0.210588,0,11.6755912,0,30.9143184,0
2003/3/5 8:00,0.07406,0,0.018837,0,10.872008,0,2.7652716,0
2003/3/5 8:15,0.071967,0,0.018032,0,10.5647556,0,2.6470976,0
2003/3/5 8:30,0.083559,0,0.027853,0,12.2664612,0,4.0888204,0
2003/3/5 8:45,0.068103,0,0.021735,0,9.9975204,0,3.190698,0
2003/3/5 9:00,0.075348,0,0,0,11.0610864,0,0,0
2003/3/5 9:15,0.07567,0,0,0,11.108356,0,0,0
2003/3/5 9:30,0.072611,0,0,0,10.6592948,0,0,0
2003/3/5 9:45,0,0,0,0,0,0,0,0
2003/3/5 10:00,0,0,0,0,0,0,0,0
2003/3/5 10:15,0,0,0,0,0,0,0,0
2003/3/5 10:30,0,0,0,0,0,0,0,0
2003/3/5 10:45,0,0,0,0,0,0,0,0
2003/3/5 11:00,0,0,0,0,0,0,0,0
2003/3/5 11:15,0,0,0,0,0,0,0,0
2003/3/5 11:30,0,0,0,0,0,0,0,0
2003/3/5 11:45,0,0,0,0,0,0,0,0
2003/3/5 12:00,0,0,0,0,0,0,0,0
2003/3/5 12:15,0,0,0,0,0,0,0,0
2003/3/5 12:30,0,0,0,0,0,0,0,0
2003/3/5 12:45,0,0,0,0,0,0,0,0
2003/3/5 13:00,0,0,0,0,0,0,0,0
2003/3/5 13:15,0,0,0,0,0,0,0,0
2003/3/5 13:30,0,0,0,0,0,0,0,0
2003/3/5 13:45,0,0,0,0,0,0,0,0
2003/3/5 14:00,0,0,0,0,0,0,0,0
2003/3/5 14:15,0,0,0,0,0,0,0,0
2003/3/5 14:30,0,0,0,0,0,0,0,0
2003/3/5 14:45,0,0,0,0,0,0,0,0
2003/3/5 15:00,0.051037,0,0,0,7.4922316,0,0,0
2003/3/5 15:15,0.074865,0,0,0,10.990182,0,0,0
2003/3/5 15:30,0.07728,0,0,0,11.344704,0,0,0
2003/3/5 15:45,0.079695,0,0,0,11.699226,0,0,0
2003/3/5 16:00,0.072289,0,0,0,10.6120252,0,0,0
2003/3/5 16:15,0.078085,0,0,0,11.462878,0,0,0
2003/3/5 16:30,0.075509,0,0,0,11.0847212,0,0,0
2003/3/5 16:45,0.071645,0,0,0,10.517486,0,0,0
2003/3/5 17:00,0.07567,0,0,0,11.108356,0,0,0
2003/3/5 17:15,0.06118,0,0,0,8.981224,0,0,0
2003/3/5 17:30,0,0,0,0,0,0,0,0
2003/3/5 17:45,0,0,0,0,0,0,0,0
2003/3/5 18:00,0,0,0,0,0,0,0,0
2003/3/5 18:15,0,0,0,0,0,0,0,0
2003/3/5 18:30,0,0,0,0,0,0,0,0
2003/3/5 18:45,0,0,0,0,0,0,0,0
2003/3/5 19:00,0,0,0,0,0,0,0,0
2003/3/5 19:15,0,0,0,0,0,0,0,0
2003/3/5 19:30,0.045724,0,0,0,6.7122832,0,0,0
2003/3/5 19:45,0.082271,0,0,0,12.0773828,0,0,0
2003/3/5 20:00,0.080661,0,0,0,11.8410348,0,0,0
2003/3/5 20:15,0.080339,0,0,0,11.7937652,0,0,0
2003/3/5 20:30,0.077924,0,0,0,11.4392432,0,0,0
2003/3/5 20:45,0.074382,0,0,0,10.9192776,0,0,0
2003/3/5 21:00,0.0805,0,0,0,11.8174,0,0,0
2003/3/5 21:15,0.072611,0,0,0,10.6592948,0,0,0
2003/3/5 21:30,0.079534,0,0,0,11.6755912,0,0,0
2003/3/5 21:45,0.073416,0,0,0,10.7774688,0,0,0
2003/3/5 22:00,0.078568,0,0,0,11.5337824,0,0,0
2003/3/5 22:15,0.070196,0,0,0,10.3047728,0,0,0
2003/3/5 22:30,0.077924,0,0,0,11.4392432,0,0,0
2003/3/5 22:45,0.078568,0,0,0,11.5337824,0,0,0
2003/3/5 23:00,0.077763,0,0,0,11.4156084,0,0,0
2003/3/5 23:15,0.072289,0,0,0,10.6120252,0,0,0
2003/3/5 23:30,0.079534,0,0,0,11.6755912,0,0,0
2003/3/5 23:45,0.035259,0,0,0,5.1760212,0,0,0
2003/3/6 0:00,0.015939,0,0,0,2.3398452,0,0,0
2003/3/6 0:15,0.032039,0,0,0,4.7033252,0,0,0
2003/3/6 0:30,0.075509,0,0,0,11.0847212,0,0,0
2003/3/6 0:45,0.011109,0,0,0,1.6308012,0,0,0
2003/3/6 1:00,0.024633,0,0,0,3.6161244,0,0,0
2003/3/6 1:15,0,0,0,0,0,0,0,0
2003/3/6 1:30,0,0,0,0,0,0,0,0
2003/3/6 1:45,0,0,0,0,0,0,0,0
2003/3/6 2:00,0,0,0,0,0,0,0,0
2003/3/6 2:15,0,0,0,0,0,0,0,0
2003/3/6 2:30,0,0,0,0,0,0,0,0
2003/3/6 2:45,0,0,0,0,0,0,0,0
2003/3/6 3:00,0,0,0,0,0,0,0,0
2003/3/6 3:15,0,0,0,0,0,0,0,0
2003/3/6 3:30,0,0,0,0,0,0,0,0
2003/3/6 3:45,0,0,0,0,0,0,0,0
2003/3/6 4:00,0,0,0,0,0,0,0,0
2003/3/6 4:15,0,0,0,0,0,0,0,0
2003/3/6 4:30,0,0,0,0,0,0,0,0
2003/3/6 4:45,0,0,0,0,0,0,0,0
2003/3/6 5:00,0,0,0,0,0,0,0,0
2003/3/6 5:15,0,0,0,0,0,0,0,0
2003/3/6 5:30,0,0,0,0,0,0,0,0
2003/3/6 5:45,0,0,0,0,0,0,0,0
2003/3/6 6:00,0,0,0,0,0,0,0,0
2003/3/6 6:15,0,0,0,0,0,0,0,0
2003/3/6 6:30,0.044114,0,0,0,6.4759352,0,0,0
2003/3/6 6:45,0.031878,0,0,0,4.6796904,0,0,0
2003/3/6 7:00,0.079051,0,0.255024,0,11.6046868,0,37.4375232,0
2003/3/6 7:15,0.077763,0,0,0,11.4156084,0,0,0
2003/3/6 7:30,0.083237,0,0,0,12.2191916,0,0,0
2003/3/6 7:45,0.0805,0,0,0,11.8174,0,0,0
2003/3/6 8:00,0.077763,0,0,0,11.4156084,0,0,0
2003/3/6 8:15,0.076797,0,0,0,11.2737996,0,0,0
2003/3/6 8:30,0.079212,0,0,0,11.6283216,0,0,0
2003/3/6 8:45,0.079534,0,0.108836,0,11.6755912,0,15.9771248,0
2003/3/6 9:00,0.046046,0,0,0,6.7595528,0,0,0
2003/3/6 9:15,0,0,0,0,0,0,0,0
2003/3/6 9:30,0,0,0,0,0,0,0,0
2003/3/6 9:45,0,0,0,0,0,0,0,0
2003/3/6 10:00,0,0,0,0,0,0,0,0
2003/3/6 10:15,0,0,0,0,0,0,0,0
2003/3/6 10:30,0,0,0,0,0,0,0,0
2003/3/6 10:45,0,0,0,0,0,0,0,0
2003/3/6 11:00,0,0,0,0,0,0,0,0
2003/3/6 11:15,0,0,0,0,0,0,0,0
2003/3/6 11:30,0,0,0,0,0,0,0,0
2003/3/6 11:45,0,0,0,0,0,0,0,0
2003/3/6 12:00,0,0,0,0,0,0,0,0
2003/3/6 12:15,0,0,0,0,0,0,0,0
2003/3/6 12:30,0,0,0,0,0,0,0,0
2003/3/6 12:45,0,0,0,0,0,0,0,0
2003/3/6 13:00,0,0,0,0,0,0,0,0
2003/3/6 13:15,0,0,0,0,0,0,0,0
2003/3/6 13:30,0,0,0,0,0,0,0,0
2003/3/6 13:45,0,0,0,0,0,0,0,0
2003/3/6 14:00,0,0,0,0,0,0,0,0
2003/3/6 14:15,0,0,0,0,0,0,0,0
2003/3/6 14:30,0,0,0,0,0,0,0,0
2003/3/6 14:45,0,0,0,0,0,0,0,0
2003/3/6 15:00,0,0,0,0,0,0,0,0
2003/3/6 15:15,0,0,0,0,0,0,0,0
2003/3/6 15:30,0,0,0,0,0,0,0,0
2003/3/6 15:45,0,0,0,0,0,0,0,0
2003/3/6 16:00,0.03059,0,0,0,4.490612,0,0,0
2003/3/6 16:15,0.091126,0,0,0,13.3772968,0,0,0
2003/3/6 16:30,0.075026,0,0,0,11.0138168,0,0,0
2003/3/6 16:45,0.080017,0,0,0,11.7464956,0,0,0
2003/3/6 17:00,0.067137,0,0,0,9.8557116,0,0,0
2003/3/6 17:15,0,0,0,0,0,0,0,0
2003/3/6 17:30,0,0,0,0,0,0,0,0
2003/3/6 17:45,0,0,0,0,0,0,0,0
2003/3/6 18:00,0,0,0,0,0,0,0,0
2003/3/6 18:15,0,0,0,0,0,0,0,0
2003/3/6 18:30,0,0,0,0,0,0,0,0
2003/3/6 18:45,0,0,0,0,0,0,0,0
2003/3/6 19:00,0,0,0,0,0,0,0,0
2003/3/6 19:15,0,0,0,0,0,0,0,0
2003/3/6 19:30,0,0,0,0,0,0,0,0
2003/3/6 19:45,0,0,0,0,0,0,0,0
2003/3/6 20:00,0,0,0,0,0,0,0,0
2003/3/6 20:15,0,0,0,0,0,0,0,0
2003/3/6 20:30,0.002415,0,0,0,0.354522,0,0,0
2003/3/6 20:45,0.102879,0,0,0,15.1026372,0,0,0
2003/3/6 21:00,0.084364,0,0,0,12.3846352,0,0,0
2003/3/6 21:15,0.076958,0,0,0,11.2974344,0,0,0
2003/3/6 21:30,0.074543,0,0,0,10.9429124,0,0,0
2003/3/6 21:45,0.087262,0,0.075348,0,12.8100616,0,11.0610864,0
2003/3/6 22:00,0.073416,0,0.537257,0,10.7774688,0,78.8693276,0